Flag for Canada Weather past 2 weeks in Brantford, Ontario, Canada

Now
59 °F

Fog.


Feels Like: 57 °F
Forecast: 57 / 66 °F
Wind: 9 mph from Northeast

Location: Hamilton Airport

Current Time: Oct 1, 2014 at 12:45:06 AM

Latest Report: Oct 1, 2014 at 12:00 AM


Visibility: 5 mi

Pressure: 30.00 "Hg

Humidity: 100%

Dew point: 59 °F

Location of BrantfordLocation

Historic Weather in Brantford — Graph

°F

Brantford temperature yesterday

Maximum temperature yesterday: 63 °F (at 1:00 PM)
Minimum temperature yesterday: 54 °F (at 3:00 AM)
Average temperature yesterday: 59 °F

Past Weeks' High & Low Weather Summary

 TemperatureHumidityPressure
High77 °F (Sep 28, 4:00 PM)100% (Sep 16, 12:00 AM)30.51 "Hg (Sep 16, 12:00 AM)
Low39 °F (Sep 19, 6:00 AM)44% (Sep 27, 3:00 PM)29.54 "Hg (Sep 21, 9:00 AM)
Average58 °F79%30.12 "Hg
* Reported Sep 15 11:00 PM — Sep 30 11:00 PM, Brantford, Weather by CustomWeather, © 2014

Note: Actual official high and low records may vary slightly from our data, if they occured in-between our weather recording intervals... More about our weather records

Advertising

Brantford weather history for previous 24 hours

 ConditionsComfort  
Time TempWeatherWind HumidityBarometerVisibility
11:00 PM
Sep 30
59 °FFog.5 mph100%30.00 "Hg5 mi
10:00 PM57 °FFog.7 mph100%29.98 "Hg2 mi
9:00 PM59 °FFog.7 mph100%29.97 "Hg2 mi
8:00 PM61 °FFog.8 mph94%29.95 "Hg2 mi
7:00 PM61 °FFog.9 mph94%29.95 "Hg2 mi
6:00 PM61 °FFog.5 mph100%29.93 "Hg2 mi
5:50 PMN/AFog.N/AN/AN/A2 mi
5:00 PM63 °FFog.9 mph88%29.92 "Hg5 mi
4:00 PM63 °FMostly cloudy.2 mph88%29.92 "Hg15 mi
3:00 PM63 °FMostly cloudy.5 mph83%29.92 "Hg15 mi
2:00 PM63 °FMore clouds than sun.2 mph77%29.92 "Hg15 mi
1:45 PM63 °FMostly cloudy.7 mph83%29.91 "Hg15 mi
1:00 PM63 °FLight rain. Mostly cloudy.6 mph88%29.92 "Hg8 mi
11:00 AM61 °FLight rain. Cloudy.2 mph94%29.90 "Hg6 mi
10:00 AM61 °FLight rain. Mostly cloudy.5 mph94%29.88 "Hg6 mi
9:00 AM59 °FLight rain. Fog.3 mph100%29.89 "Hg1 mi
8:00 AM57 °FLight rain. Fog.3 mph100%29.88 "Hg3 mi
7:51 AM57 °FLight rain. Fog.3 mph100%29.88 "Hg3 mi
7:00 AM57 °FSprinkles. Overcast.5 mph100%29.88 "Hg15 mi
6:00 AM57 °FFog.No wind94%29.88 "Hg2 mi
5:00 AM54 °FFog.6 mph100%29.86 "Hg2 mi
4:00 AM55 °FPassing clouds.3 mph100%29.86 "Hg15 mi
3:00 AM54 °FPassing clouds.5 mph100%29.86 "Hg15 mi
2:00 AM55 °FPassing clouds.5 mph94%29.86 "Hg15 mi
1:00 AM55 °FPassing clouds.5 mph94%29.86 "Hg15 mi
12:00 AM55 °FPassing clouds.5 mph100%29.87 "Hg15 mi
Weather by CustomWeather, © 2014

See weather overviewHow to use our weather pages